Location: Navajo
(48.7922°N, 105.0603°W)
Time: 16:13:49
(UTC+00:00)

ITUPSAT 1 - Pass Details

Date: 08 July 2022
Orbit: 701 x 711 km, 98.6° (Epoch: 13 August)

Event Time Altitude Azimuth Distance (km) Brightness Sun altitude
Rises 04:34:50 0° 6° (N) 3,116 ? -11.2°
Reaches altitude 10° 04:37:18 10° 356° (N) 2,194 ? -11.5°
Maximum altitude 04:41:28 30° 296° (WNW) 1,265 ? -11.8°
Drops below altitude 10° 04:45:36 10° 236° (WSW) 2,185 ? -12.2°
Sets 04:48:04 0° 226° (SW) 3,100 ? -12.4°
